OneWeb SL0594

operational
NORAD ID: 54660 Int'l Des: 2022-166 Owner: ONEWEBN Country: UK Constellation: oneweb
LEOCIRCULARPOLARONEWEB_TYPE

About OneWeb SL0594

Description loading...

Live Position

Loading 3D Globe...

Upcoming Passes

Altitude History

Altitude vs Time

uPlot chart will show altitude changes over time

Two-Line Element Set

1 54660U 22166U 26066.01347774 -.00000063 00000-0 -18510-3 0 9990
2 54660 87.9163 264.3697 0001653 94.8627 265.2696 13.21827331158062
Epoch: Mar 7, 2026 • Age: 15 hours

Current Status

Altitude 1179.7 km
Velocity 7.26 km/s
Sub-Earth Point 14.51°N, 124.51°W
Launch Date Dec 8, 2022
Age 3.2 years
Type internet

Technical Details

Classification Payload
Mass 148.00 kg
Dry Mass 140.00 kg
Total Mass 148.00 kg
Length 1.30 m
Diameter 1.00 m
Span 5.00 m
Shape Trapezoid+2 pan
Manufacturer ONEWUS
Bus Type ARROW
Phase Status In Orbit
Owner/State ONEWEBN/UK

Large Constellations

Loading constellations...